{"data":{"norad_id":49401,"intl_designator":"2021-102G","name":"DRUMS","alt_names":[],"object_type":"PAYLOAD","status":"ACTIVE","operator":null,"country":"JPN","launch_date":"2021-11-09","launch_site_code":"KSCUT","launch_vehicle":null,"mission":null,"orbit_class":"UNKNOWN","rcs_meters":null,"size_class":null,"mass_kg":null,"dimensions":null,"purposes":[],"wikipedia_slug":null,"has_3d_model":false,"image_url":null,"decayed_at":null,"tle_current":{"epoch":"2026-09-20T08:13:51.117600Z","epoch_age_seconds":120931,"freshness":"FRESH","line1":"1 49401U 21102G   26263.34295275  .00002784  00000+0  12744-3 0  9991","line2":"2 49401  97.3230 297.8364 0013145 257.1340 102.8428 15.21254644268048","mean_motion":15.21254644,"eccentricity":0.0013145,"inclination_deg":97.323,"raan_deg":297.8364,"arg_perigee_deg":257.134,"mean_anomaly_deg":102.8428,"bstar":0.00012744,"rev_number":26804,"period_min":94.658708565297,"perigee_km":493.01107290438,"apogee_km":511.0990978969,"semimajor_km":6880.1920854006,"source":"CELESTRAK","updated_at":"2026-09-21T09:00:08.079826Z"}}}